TimePDT,TemperatureF,Dew PointF,Humidity,Sea Level PressureIn,VisibilityMPH,Wind Direction,Wind SpeedMPH,Gust SpeedMPH,PrecipitationIn,Events,Conditions,WindDirDegrees,DateUTC
12:52 AM,62.1,50.0,65,29.95,-9999.0,NE,3.5,-,N/A,,Unknown,50,2013-06-27 07:52:00
1:52 AM,62.1,50.0,65,29.94,-9999.0,NE,5.8,-,N/A,,Unknown,50,2013-06-27 08:52:00
2:52 AM,61.0,50.0,67,29.95,-9999.0,NE,4.6,-,N/A,,Unknown,50,2013-06-27 09:52:00
3:52 AM,60.1,50.0,69,29.95,-9999.0,NE,5.8,-,N/A,,Unknown,50,2013-06-27 10:52:00
4:52 AM,60.1,48.9,67,29.95,-9999.0,Calm,Calm,-,N/A,,Unknown,0,2013-06-27 11:52:00
5:52 AM,60.1,50.0,69,29.96,-9999.0,NE,4.6,-,N/A,,Unknown,50,2013-06-27 12:52:00
6:52 AM,64.9,52.0,63,29.97,-9999.0,NE,4.6,-,N/A,,Unknown,50,2013-06-27 13:52:00
7:52 AM,75.0,52.0,44,29.97,-9999.0,Calm,Calm,-,N/A,,Unknown,0,2013-06-27 14:52:00
8:52 AM,82.9,50.0,32,29.96,-9999.0,Calm,Calm,-,N/A,,Unknown,0,2013-06-27 15:52:00
9:52 AM,89.1,48.0,24,29.96,-9999.0,SSW,6.9,-,N/A,,Unknown,200,2013-06-27 16:52:00
10:52 AM,91.9,46.0,21,29.96,-9999.0,SW,11.5,-,N/A,,Unknown,220,2013-06-27 17:52:00
11:52 AM,93.9,43.0,17,29.95,-9999.0,SW,10.4,17.3,N/A,,Unknown,220,2013-06-27 18:52:00
12:52 PM,95.0,46.9,19,29.95,-9999.0,SW,13.8,25.3,N/A,,Unknown,230,2013-06-27 19:52:00
1:52 PM,97.0,46.9,18,29.94,-9999.0,SW,16.1,23.0,N/A,,Unknown,220,2013-06-27 20:52:00
2:52 PM,97.0,46.9,18,29.93,-9999.0,SW,15.0,19.6,N/A,,Unknown,220,2013-06-27 21:52:00
3:52 PM,95.0,48.0,20,29.93,-9999.0,SW,11.5,-,N/A,,Unknown,230,2013-06-27 22:52:00
4:52 PM,93.9,48.0,21,29.93,-9999.0,SW,17.3,20.7,N/A,,Unknown,230,2013-06-27 23:52:00
5:52 PM,91.0,50.0,24,29.94,-9999.0,West,9.2,-,N/A,,Unknown,270,2013-06-28 00:52:00
6:52 PM,86.0,52.0,31,29.94,-9999.0,SW,9.2,-,N/A,,Unknown,230,2013-06-28 01:52:00
7:52 PM,80.1,52.0,38,29.94,-9999.0,SSW,6.9,-,N/A,,Unknown,200,2013-06-28 02:52:00
8:52 PM,77.0,52.0,42,29.95,-9999.0,SSW,4.6,-,N/A,,Unknown,200,2013-06-28 03:52:00
9:52 PM,72.0,51.1,48,29.96,-9999.0,Calm,Calm,-,N/A,,Unknown,0,2013-06-28 04:52:00
10:52 PM,64.9,48.9,56,29.97,-9999.0,NE,4.6,-,N/A,,Unknown,40,2013-06-28 05:52:00
11:52 PM,64.9,50.0,58,29.97,-9999.0,NNE,3.5,-,N/A,,Unknown,30,2013-06-28 06:52:00